| time (UTC) | temp C | wind direction | speed KPH | gust KPH | rain 1hr cm | rain 24hr cm | rain mn cm | humidity % | barometer mb |
| 20260503010028 | 7 | 112 | 0.0 | 0.0 | 0.00 | 0.00 | 0.00 | 65 | 1006.0 |
| 20260503005413 | 7 | 112 | 0.0 | 0.0 | 0.00 | 0.00 | 0.00 | 62 | 1006.0 |
| 20260503004843 | 8 | 112 | 0.0 | 0.0 | 0.00 | 0.00 | 0.00 | 59 | 1006.0 |
| 20260503004211 | 8 | 112 | 0.0 | 0.0 | 0.00 | 0.00 | 0.00 | 60 | 1006.0 |
| 20260503003641 | 8 | 112 | 0.0 | 0.0 | 0.00 | 0.00 | 0.00 | 59 | 1006.0 |
| 20260503003018 | 8 | 112 | 0.0 | 0.0 | 0.00 | 0.00 | 0.00 | 54 | 1006.0 |
| 20260503001815 | 8 | 90 | 0.0 | 0.0 | 0.00 | 0.00 | 0.00 | 56 | 1006.0 |
| 20260503001232 | 9 | 90 | 0.0 | 0.0 | 0.00 | 0.00 | 0.00 | 56 | 1006.0 |
| 20260503000048 | 10 | 90 | 0.0 | 0.0 | 0.00 | 0.00 | 0.00 | 53 | 1006.0 |
| 20260502235410 | 10 | 270 | 0.0 | 0.0 | 0.00 | 0.00 | 0.00 | 49 | 1006.0 |
| 20260502234841 | 10 | 68 | 0.0 | 0.0 | 0.00 | 0.00 | 0.00 | 45 | 1006.0 |
| 20260502234245 | 11 | 202 | 0.0 | 0.0 | 0.00 | 0.00 | 0.00 | 49 | 1005.0 |
| 20260502233641 | 11 | 225 | 1.6 | 1.6 | 0.00 | 0.00 | 0.00 | 44 | 1005.0 |
| 20260502232429 | 11 | 270 | 1.6 | 1.6 | 0.00 | 0.00 | 0.00 | 41 | 1005.0 |
| 20260502231840 | 11 | 202 | 3.2 | 3.2 | 0.00 | 0.00 | 0.00 | 42 | 1005.0 |
| 20260502231212 | 11 | 158 | 0.0 | 0.0 | 0.00 | 0.00 | 0.00 | 39 | 1005.0 |
| 20260502230630 | 11 | 248 | 3.2 | 3.2 | 0.00 | 0.00 | 0.00 | 40 | 1005.0 |
| 20260502230040 | 11 | 158 | 0.0 | 0.0 | 0.00 | 0.00 | 0.00 | 39 | 1005.0 |
| 20260502225434 | 11 | 68 | 3.2 | 3.2 | 0.00 | 0.00 | 0.00 | 39 | 1005.0 |
| 20260502224832 | 12 | 68 | 3.2 | 3.2 | 0.00 | 0.00 | 0.00 | 39 | 1005.0 |
| 20260502224226 | 12 | 112 | 6.4 | 8.0 | 0.00 | 0.00 | 0.00 | 37 | 1005.0 |
| 20260502223035 | 12 | 68 | 4.8 | 4.8 | 0.00 | 0.00 | 0.00 | 37 | 1005.0 |
| 20260502222421 | 12 | 90 | 4.8 | 4.8 | 0.00 | 0.00 | 0.00 | 41 | 1005.0 |
| 20260502221839 | 12 | 112 | 0.0 | 0.0 | 0.00 | 0.00 | 0.00 | 37 | 1005.0 |
| 20260502221254 | 12 | 90 | 3.2 | 3.2 | 0.00 | 0.00 | 0.00 | 41 | 1005.0 |
| 20260502220621 | 12 | 22 | 6.4 | 6.4 | 0.00 | 0.00 | 0.00 | 38 | 1005.0 |
| 20260502220030 | 12 | 68 | 0.0 | 0.0 | 0.00 | 0.00 | 0.00 | 38 | 1005.0 |
| 20260502215411 | 12 | 90 | 3.2 | 3.2 | 0.00 | 0.00 | 0.00 | 38 | 1005.0 |
| 20260502214823 | 12 | 135 | 3.2 | 3.2 | 0.00 | 0.00 | 0.00 | 38 | 1005.0 |
| 20260502213651 | 12 | 112 | 8.0 | 8.0 | 0.00 | 0.00 | 0.00 | 39 | 1005.0 |
| 20260502213041 | 12 | 68 | 6.4 | 8.0 | 0.00 | 0.00 | 0.00 | 38 | 1005.0 |
| 20260502212448 | 12 | 112 | 1.6 | 1.6 | 0.00 | 0.00 | 0.00 | 39 | 1005.0 |
| 20260502211814 | 12 | 90 | 3.2 | 3.2 | 0.00 | 0.00 | 0.00 | 41 | 1005.0 |
| 20260502211238 | 12 | 90 | 3.2 | 3.2 | 0.00 | 0.00 | 0.00 | 39 | 1005.0 |
| 20260502210627 | 12 | 68 | 3.2 | 3.2 | 0.00 | 0.00 | 0.00 | 39 | 1005.0 |
| 20260502210034 | 12 | 158 | 0.0 | 0.0 | 0.00 | 0.00 | 0.00 | 37 | 1005.0 |
| 20260502205414 | 12 | 158 | 4.8 | 4.8 | 0.00 | 0.00 | 0.00 | 36 | 1005.0 |
| 20260502204235 | 12 | 225 | 8.0 | 8.0 | 0.00 | 0.00 | 0.00 | 37 | 1005.0 |
| 20260502203612 | 12 | 225 | 3.2 | 3.2 | 0.00 | 0.00 | 0.00 | 37 | 1005.0 |
| 20260502203052 | 12 | 68 | 8.0 | 8.0 | 0.00 | 0.00 | 0.00 | 38 | 1005.0 |
| 20260502202443 | 12 | 90 | 4.8 | 4.8 | 0.00 | 0.00 | 0.00 | 39 | 1005.0 |
| 20260502201845 | 12 | 90 | 3.2 | 3.2 | 0.00 | 0.00 | 0.00 | 38 | 1005.0 |
| 20260502201211 | 12 | 112 | 3.2 | 3.2 | 0.00 | 0.00 | 0.00 | 40 | 1005.0 |
| 20260502200650 | 12 | 68 | 9.7 | 9.7 | 0.00 | 0.00 | 0.00 | 39 | 1005.0 |
| 20260502200039 | 12 | 68 | 11.3 | 12.9 | 0.00 | 0.00 | 0.00 | 39 | 1005.0 |
| 20260502195414 | 12 | 202 | 1.6 | 1.6 | 0.00 | 0.00 | 0.00 | 36 | 1005.0 |
| 20260502194838 | 12 | 112 | 1.6 | 1.6 | 0.00 | 0.00 | 0.00 | 42 | 1005.0 |
| 20260502194248 | 12 | 90 | 11.3 | 12.9 | 0.00 | 0.00 | 0.00 | 42 | 1005.0 |
| 20260502193634 | 12 | 90 | 6.4 | 6.4 | 0.00 | 0.00 | 0.00 | 42 | 1005.0 |
| 20260502193038 | 12 | 202 | 3.2 | 3.2 | 0.00 | 0.00 | 0.00 | 41 | 1005.0 |
| 20260502192426 | 13 | 248 | 6.4 | 8.0 | 0.00 | 0.00 | 0.00 | 39 | 1005.0 |
| 20260502191852 | 12 | 112 | 3.2 | 3.2 | 0.00 | 0.00 | 0.00 | 38 | 1005.0 |
| 20260502190615 | 12 | 248 | 3.2 | 3.2 | 0.00 | 0.00 | 0.00 | 40 | 1005.0 |
| 20260502190018 | 12 | 112 | 4.8 | 6.4 | 0.00 | 0.00 | 0.00 | 39 | 1005.0 |
| 20260502185437 | 12 | 68 | 4.8 | 4.8 | 0.00 | 0.00 | 0.00 | 41 | 1006.0 |
| 20260502184255 | 12 | 112 | 1.6 | 1.6 | 0.00 | 0.00 | 0.00 | 38 | 1006.0 |
| 20260502183654 | 12 | 248 | 3.2 | 3.2 | 0.00 | 0.00 | 0.00 | 37 | 1006.0 |
| 20260502183016 | 12 | 135 | 1.6 | 1.6 | 0.00 | 0.00 | 0.00 | 37 | 1006.0 |
| 20260502182440 | 12 | 225 | 8.0 | 9.7 | 0.00 | 0.00 | 0.00 | 37 | 1006.0 |
| 20260502181833 | 12 | 180 | 6.4 | 8.0 | 0.00 | 0.00 | 0.00 | 38 | 1006.0 |
| 20260502181254 | 12 | 248 | 8.0 | 8.0 | 0.00 | 0.00 | 0.00 | 38 | 1006.0 |
| 20260502180621 | 13 | 202 | 1.6 | 1.6 | 0.00 | 0.00 | 0.00 | 38 | 1006.0 |
| 20260502164244 | 12 | 292 | 3.2 | 3.2 | 0.00 | 0.00 | 0.00 | 36 | 1006.0 |
| 20260502163631 | 12 | 68 | 9.7 | 11.3 | 0.00 | 0.00 | 0.00 | 36 | 1006.0 |
| 20260502163053 | 13 | 112 | 8.0 | 8.0 | 0.00 | 0.00 | 0.00 | 37 | 1006.0 |
| 20260502162442 | 13 | 112 | 6.4 | 6.4 | 0.00 | 0.00 | 0.00 | 36 | 1006.0 |
| 20260502161816 | 13 | 90 | 1.6 | 1.6 | 0.00 | 0.00 | 0.00 | 37 | 1006.0 |
| 20260502161221 | 13 | 68 | 4.8 | 6.4 | 0.00 | 0.00 | 0.00 | 35 | 1006.0 |
| 20260502160623 | 13 | 68 | 4.8 | 4.8 | 0.00 | 0.00 | 0.00 | 35 | 1006.0 |
| 20260502151833 | 12 | 68 | 8.0 | 8.0 | 0.00 | 0.00 | 0.00 | 38 | 1006.0 |
| 20260502151241 | 12 | 68 | 8.0 | 8.0 | 0.00 | 0.00 | 0.00 | 38 | 1006.0 |
| 20260502150650 | 12 | 112 | 8.0 | 8.0 | 0.00 | 0.00 | 0.00 | 36 | 1006.0 |
| 20260502130631 | 9 | 112 | 3.2 | 3.2 | 0.00 | 0.00 | 0.00 | 56 | 1006.7 |
| 20260502123635 | 7 | 158 | 0.0 | 0.0 | 0.00 | 0.00 | 0.00 | 71 | 1006.7 |
| 20260502122440 | 7 | 158 | 0.0 | 0.0 | 0.00 | 0.00 | 0.00 | 72 | 1006.7 |
| 20260502121222 | 6 | 68 | 0.0 | 0.0 | 0.00 | 0.00 | 0.00 | 78 | 1006.7 |
| 20260502120644 | 6 | 68 | 0.0 | 0.0 | 0.00 | 0.00 | 0.00 | 78 | 1006.7 |
| 20260502115451 | 5 | 68 | 0.0 | 0.0 | 0.00 | 0.00 | 0.00 | 78 | 1006.7 |
| 20260502114813 | 5 | 68 | 0.0 | 0.0 | 0.00 | 0.00 | 0.00 | 79 | 1006.7 |
| 20260502114232 | 5 | 68 | 0.0 | 0.0 | 0.00 | 0.00 | 0.00 | 79 | 1006.7 |
| 20260502113611 | 5 | 68 | 0.0 | 0.0 | 0.00 | 0.00 | 0.00 | 81 | 1006.7 |
| 20260502113039 | 5 | 68 | 0.0 | 0.0 | 0.00 | 0.00 | 0.00 | 80 | 1006.7 |
| 20260502112437 | 5 | 68 | 0.0 | 0.0 | 0.00 | 0.00 | 0.00 | 82 | 1006.7 |
| 20260502111828 | 5 | 68 | 0.0 | 0.0 | 0.00 | 0.00 | 0.00 | 83 | 1006.7 |
| 20260502111226 | 5 | 68 | 0.0 | 0.0 | 0.00 | 0.00 | 0.00 | 82 | 1006.7 |
| 20260502110017 | 5 | 68 | 0.0 | 0.0 | 0.00 | 0.00 | 0.00 | 82 | 1006.7 |
| 20260502105418 | 5 | 68 | 0.0 | 0.0 | 0.00 | 0.00 | 0.00 | 81 | 1006.0 |
| 20260502104829 | 5 | 68 | 0.0 | 0.0 | 0.00 | 0.00 | 0.00 | 81 | 1006.0 |
| 20260502104217 | 5 | 68 | 0.0 | 0.0 | 0.00 | 0.00 | 0.00 | 81 | 1006.0 |
| 20260502103635 | 5 | 68 | 0.0 | 0.0 | 0.00 | 0.00 | 0.00 | 81 | 1006.0 |
| 20260502103043 | 5 | 68 | 0.0 | 0.0 | 0.00 | 0.00 | 0.00 | 81 | 1006.0 |
| 20260502102419 | 5 | 68 | 0.0 | 0.0 | 0.00 | 0.00 | 0.00 | 81 | 1006.7 |
| 20260502101846 | 5 | 68 | 0.0 | 0.0 | 0.00 | 0.00 | 0.00 | 79 | 1006.7 |
| 20260502100630 | 5 | 68 | 0.0 | 0.0 | 0.00 | 0.00 | 0.00 | 79 | 1006.0 |
| 20260502091252 | 6 | 68 | 0.0 | 0.0 | 0.00 | 0.00 | 0.00 | 73 | 1006.7 |
| 20260502090624 | 6 | 68 | 0.0 | 0.0 | 0.00 | 0.00 | 0.00 | 72 | 1006.7 |
| 20260502071224 | 8 | 68 | 0.0 | 0.0 | 0.00 | 0.00 | 0.00 | 57 | 1006.0 |
| 20260502070652 | 8 | 68 | 0.0 | 0.0 | 0.00 | 0.00 | 0.00 | 58 | 1006.0 |
| 20260502070035 | 8 | 90 | 0.0 | 0.0 | 0.00 | 0.00 | 0.00 | 56 | 1006.0 |
| 20260502063651 | 9 | 135 | 0.0 | 0.0 | 0.00 | 0.00 | 0.00 | 54 | 1006.0 |
| 20260502063042 | 9 | 135 | 0.0 | 0.0 | 0.00 | 0.00 | 0.00 | 57 | 1006.0 |
| 20260502061814 | 9 | 135 | 0.0 | 0.0 | 0.00 | 0.00 | 0.00 | 56 | 1006.0 |
| 20260502061249 | 9 | 135 | 0.0 | 0.0 | 0.00 | 0.00 | 0.00 | 55 | 1006.7 |
| 20260502060622 | 9 | 135 | 0.0 | 0.0 | 0.00 | 0.00 | 0.00 | 53 | 1006.7 |
| 20260502060047 | 9 | 180 | 0.0 | 0.0 | 0.00 | 0.00 | 0.00 | 54 | 1006.7 |
| 20260502055448 | 9 | 112 | 4.8 | 4.8 | 0.00 | 0.00 | 0.00 | 52 | 1006.7 |
| 20260502054820 | 10 | 112 | 3.2 | 3.2 | 0.00 | 0.00 | 0.00 | 53 | 1006.7 |
| 20260502054251 | 10 | 68 | 3.2 | 3.2 | 0.00 | 0.00 | 0.00 | 55 | 1006.0 |
| 20260502053021 | 10 | 68 | 3.2 | 3.2 | 0.00 | 0.00 | 0.00 | 53 | 1006.0 |
| 20260502052415 | 10 | 112 | 6.4 | 8.0 | 0.00 | 0.00 | 0.00 | 52 | 1006.0 |
| 20260502051826 | 10 | 112 | 6.4 | 8.0 | 0.00 | 0.00 | 0.00 | 50 | 1006.0 |
| 20260502051220 | 10 | 90 | 4.8 | 4.8 | 0.00 | 0.00 | 0.00 | 54 | 1006.0 |
| 20260502050628 | 10 | 68 | 9.7 | 9.7 | 0.00 | 0.00 | 0.00 | 58 | 1006.0 |
| 20260502050039 | 10 | 68 | 8.0 | 8.0 | 0.00 | 0.00 | 0.00 | 59 | 1006.0 |
| 20260502045433 | 10 | 68 | 8.0 | 8.0 | 0.00 | 0.00 | 0.00 | 60 | 1006.7 |
| 20260502044838 | 10 | 68 | 9.7 | 9.7 | 0.00 | 0.00 | 0.00 | 63 | 1006.7 |
| 20260502043629 | 10 | 112 | 0.0 | 0.0 | 0.00 | 0.00 | 0.00 | 63 | 1006.0 |
| 20260502043043 | 11 | 68 | 3.2 | 3.2 | 0.00 | 0.00 | 0.00 | 63 | 1006.0 |
| 20260502042435 | 11 | 90 | 6.4 | 6.4 | 0.00 | 0.00 | 0.00 | 63 | 1006.0 |
| 20260502041810 | 11 | 112 | 9.7 | 11.3 | 0.00 | 0.00 | 0.00 | 63 | 1006.0 |
| 20260502041217 | 11 | 90 | 0.0 | 0.0 | 0.00 | 0.00 | 0.00 | 62 | 1006.0 |
| 20260502040649 | 11 | 90 | 3.2 | 3.2 | 0.00 | 0.00 | 0.00 | 62 | 1006.0 |
| 20260502040019 | 11 | 68 | 4.8 | 4.8 | 0.00 | 0.00 | 0.00 | 62 | 1006.0 |
| 20260502035442 | 11 | 68 | 3.2 | 3.2 | 0.00 | 0.00 | 0.00 | 62 | 1006.0 |
| 20260502034810 | 11 | 68 | 8.0 | 8.0 | 0.00 | 0.00 | 0.00 | 62 | 1006.0 |
| 20260502034246 | 11 | 68 | 4.8 | 4.8 | 0.00 | 0.00 | 0.00 | 61 | 1006.0 |
| 20260502033649 | 11 | 112 | 1.6 | 1.6 | 0.00 | 0.00 | 0.00 | 61 | 1006.0 |
| 20260502033012 | 11 | 112 | 4.8 | 4.8 | 0.00 | 0.00 | 0.00 | 62 | 1006.0 |
| 20260502032426 | 11 | 90 | 4.8 | 6.4 | 0.00 | 0.00 | 0.00 | 60 | 1006.0 |
| 20260502031841 | 11 | 112 | 0.0 | 0.0 | 0.00 | 0.00 | 0.00 | 60 | 1006.0 |
| 20260502031213 | 11 | 90 | 1.6 | 1.6 | 0.00 | 0.00 | 0.00 | 59 | 1006.0 |
| 20260502030616 | 11 | 112 | 0.0 | 0.0 | 0.00 | 0.00 | 0.00 | 59 | 1006.0 |
| 20260502030046 | 11 | 112 | 1.6 | 1.6 | 0.00 | 0.00 | 0.00 | 58 | 1006.0 |
| 20260502025414 | 11 | 68 | 3.2 | 3.2 | 0.00 | 0.00 | 0.00 | 58 | 1006.0 |
| 20260502024827 | 11 | 90 | 3.2 | 3.2 | 0.00 | 0.00 | 0.00 | 61 | 1006.0 |
| 20260502024219 | 12 | 112 | 1.6 | 1.6 | 0.00 | 0.00 | 0.00 | 59 | 1006.0 |
| 20260502023624 | 12 | 68 | 3.2 | 3.2 | 0.00 | 0.00 | 0.00 | 59 | 1006.0 |
| 20260502023047 | 12 | 68 | 9.7 | 9.7 | 0.00 | 0.00 | 0.00 | 57 | 1006.0 |
| 20260502022427 | 12 | 90 | 11.3 | 11.3 | 0.00 | 0.00 | 0.00 | 58 | 1006.0 |
| 20260502021812 | 12 | 112 | 4.8 | 4.8 | 0.00 | 0.00 | 0.00 | 58 | 1006.0 |
| 20260502021234 | 12 | 68 | 9.7 | 9.7 | 0.00 | 0.00 | 0.00 | 58 | 1006.0 |
| 20260502020614 | 12 | 68 | 4.8 | 6.4 | 0.00 | 0.00 | 0.00 | 58 | 1006.0 |
| 20260502020036 | 12 | 112 | 4.8 | 6.4 | 0.00 | 0.00 | 0.00 | 58 | 1006.0 |
| 20260502015431 | 12 | 112 | 3.2 | 3.2 | 0.00 | 0.00 | 0.00 | 56 | 1005.0 |
| 20260502014842 | 12 | 68 | 8.0 | 9.7 | 0.00 | 0.00 | 0.00 | 58 | 1005.0 |
| 20260502014227 | 12 | 158 | 0.0 | 0.0 | 0.00 | 0.00 | 0.00 | 58 | 1005.0 |
| 20260502013620 | 12 | 112 | 0.0 | 0.0 | 0.00 | 0.00 | 0.00 | 58 | 1005.0 |
| 20260502013036 | 12 | 90 | 0.0 | 0.0 | 0.00 | 0.00 | 0.00 | 58 | 1005.0 |
| 20260502012450 | 12 | 90 | 1.6 | 1.6 | 0.00 | 0.00 | 0.00 | 58 | 1005.0 |
| 20260502011841 | 12 | 68 | 0.0 | 0.0 | 0.00 | 0.00 | 0.00 | 62 | 1005.0 |
| 20260502011224 | 12 | 68 | 0.0 | 0.0 | 0.00 | 0.00 | 0.00 | 61 | 1004.0 |
| 20260502010625 | 13 | 68 | 0.0 | 0.0 | 0.00 | 0.00 | 0.00 | 62 | 1004.0 |